Time,TemperatureF,DewpointF,PressureIn,WindDirection,WindDirectionDegrees,WindSpeedMPH,WindSpeedGustMPH,Humidity,HourlyPrecipIn,Conditions,Clouds,dailyrainin,SoftwareType,DateUTC
2013-01-06 16:00:00,37.0,-99.9,-100.00,West,277,12.0,17.0,-999,-99.99,,,-99.99,,2013-01-06 21:00:00,
2013-01-06 16:22:00,37.0,-99.9,-100.00,West,277,12.0,17.0,-999,-99.99,,,-99.99,,2013-01-06 21:22:00,
2013-01-06 16:33:00,37.0,-99.9,-100.00,West,277,12.0,17.0,-999,-99.99,,,-99.99,,2013-01-06 21:33:00,
2013-01-06 16:43:00,37.0,-99.9,-100.00,West,277,12.0,17.0,-999,-99.99,,,-99.99,,2013-01-06 21:43:00,
2013-01-06 16:53:00,37.0,-99.9,-100.00,West,277,12.0,17.0,-999,-99.99,,,-99.99,,2013-01-06 21:53:00,
2013-01-06 17:00:00,37.0,-99.9,-100.00,West,277,12.0,15.0,-999,-99.99,,,-99.99,,2013-01-06 22:00:00,
2013-01-06 17:23:00,37.0,-99.9,-100.00,West,277,12.0,15.0,-999,-99.99,,,-99.99,,2013-01-06 22:23:00,
2013-01-06 17:33:00,37.0,-99.9,-100.00,West,277,12.0,15.0,-999,-99.99,,,-99.99,,2013-01-06 22:33:00,
2013-01-06 17:43:00,37.0,-99.9,-100.00,West,277,12.0,15.0,-999,-99.99,,,-99.99,,2013-01-06 22:43:00,
2013-01-06 17:53:00,37.0,-99.9,-100.00,West,277,12.0,15.0,-999,-99.99,,,-99.99,,2013-01-06 22:53:00,
2013-01-06 18:00:00,36.0,-99.9,-100.00,West,280,9.0,13.0,-999,-99.99,,,-99.99,,2013-01-06 23:00:00,
2013-01-06 18:23:00,36.0,-99.9,-100.00,West,280,9.0,13.0,-999,-99.99,,,-99.99,,2013-01-06 23:23:00,
2013-01-06 18:33:00,36.0,-99.9,-100.00,West,280,9.0,13.0,-999,-99.99,,,-99.99,,2013-01-06 23:33:00,
2013-01-06 18:43:00,36.0,-99.9,-100.00,West,280,9.0,13.0,-999,-99.99,,,-99.99,,2013-01-06 23:43:00,
2013-01-06 18:53:00,36.0,-99.9,-100.00,West,280,9.0,13.0,-999,-99.99,,,-99.99,,2013-01-06 23:53:00,
2013-01-06 19:00:00,37.0,-99.9,-100.00,WNW,296,8.0,12.0,-999,-99.99,,,-99.99,,2013-01-07 00:00:00,
2013-01-06 19:23:00,37.0,-99.9,-100.00,WNW,296,8.0,12.0,-999,-99.99,,,-99.99,,2013-01-07 00:23:00,
2013-01-06 19:33:00,37.0,-99.9,-100.00,WNW,296,8.0,12.0,-999,-99.99,,,-99.99,,2013-01-07 00:33:00,
2013-01-06 19:43:00,37.0,-99.9,-100.00,WNW,296,8.0,12.0,-999,-99.99,,,-99.99,,2013-01-07 00:43:00,
2013-01-06 19:53:00,37.0,-99.9,-100.00,WNW,296,8.0,12.0,-999,-99.99,,,-99.99,,2013-01-07 00:53:00,
2013-01-06 20:00:00,37.0,-99.9,-100.00,WNW,301,10.0,14.0,-999,-99.99,,,-99.99,,2013-01-07 01:00:00,
2013-01-06 20:23:00,37.0,-99.9,-100.00,WNW,301,10.0,14.0,-999,-99.99,,,-99.99,,2013-01-07 01:23:00,
2013-01-06 20:32:00,37.0,-99.9,-100.00,WNW,301,10.0,14.0,-999,-99.99,,,-99.99,,2013-01-07 01:32:00,
2013-01-06 20:43:00,37.0,-99.9,-100.00,WNW,301,10.0,14.0,-999,-99.99,,,-99.99,,2013-01-07 01:43:00,
2013-01-06 20:53:00,37.0,-99.9,-100.00,WNW,301,10.0,14.0,-999,-99.99,,,-99.99,,2013-01-07 01:53:00,
2013-01-06 21:00:00,37.0,-99.9,-100.00,WNW,301,9.0,14.0,-999,-99.99,,,-99.99,,2013-01-07 02:00:00,
2013-01-06 21:23:00,37.0,-99.9,-100.00,WNW,301,9.0,14.0,-999,-99.99,,,-99.99,,2013-01-07 02:23:00,
2013-01-06 21:33:00,37.0,-99.9,-100.00,WNW,301,9.0,14.0,-999,-99.99,,,-99.99,,2013-01-07 02:33:00,
2013-01-06 21:43:00,37.0,-99.9,-100.00,WNW,301,9.0,14.0,-999,-99.99,,,-99.99,,2013-01-07 02:43:00,
2013-01-06 21:53:00,37.0,-99.9,-100.00,WNW,301,9.0,14.0,-999,-99.99,,,-99.99,,2013-01-07 02:53:00,
2013-01-06 22:00:00,37.0,-99.9,-100.00,WNW,303,10.0,15.0,-999,-99.99,,,-99.99,,2013-01-07 03:00:00,
2013-01-06 22:23:00,37.0,-99.9,-100.00,WNW,303,10.0,15.0,-999,-99.99,,,-99.99,,2013-01-07 03:23:00,
2013-01-06 22:33:00,37.0,-99.9,-100.00,WNW,303,10.0,15.0,-999,-99.99,,,-99.99,,2013-01-07 03:33:00,
2013-01-06 22:43:00,37.0,-99.9,-100.00,WNW,303,10.0,15.0,-999,-99.99,,,-99.99,,2013-01-07 03:43:00,
2013-01-06 22:53:00,37.0,-99.9,-100.00,WNW,303,10.0,15.0,-999,-99.99,,,-99.99,,2013-01-07 03:53:00,
2013-01-06 23:00:00,37.0,-99.9,-100.00,NW,322,13.0,16.0,-999,-99.99,,,-99.99,,2013-01-07 04:00:00,
2013-01-06 23:22:00,37.0,-99.9,-100.00,NW,322,13.0,16.0,-999,-99.99,,,-99.99,,2013-01-07 04:22:00,
2013-01-06 23:33:00,37.0,-99.9,-100.00,NW,322,13.0,16.0,-999,-99.99,,,-99.99,,2013-01-07 04:33:00,
2013-01-06 23:43:00,37.0,-99.9,-100.00,NW,322,13.0,16.0,-999,-99.99,,,-99.99,,2013-01-07 04:43:00,
2013-01-06 23:53:00,37.0,-99.9,-100.00,NW,322,13.0,16.0,-999,-99.99,,,-99.99,,2013-01-07 04:53:00,